STARLINK-1647, 47978

Orbit data source: Space-Track

STARLINK-1647, 47978 is a payload satellite owned by SpaceX/Seattle (US) in LEO that was launched on Wed, 24 Mar 2021 UTC via an FALCON 9 launch vehicle from the Air Force Eastern Test Range (AFETR). Payload-class satellites include a variety of spacecraft equipped with specific instruments for various scientific and technological missions. These include communications satellites like Starlink; space stations such as the ISS; scientific satellites like the Hubble; Earth observation satellites from companies like Planet Labs, Umbra, and HawkEye 360; GPS; miniature CubeSats for education and research; and military/defense satellites.

Loading next visibility...
Identifier
47978, 2021-024B
Orbit
LEO
Country
Flag of USUS
Related business
Manufacturer
SpaceX/Seattle
Mission
Operational Commercial Communications
Bus & Motor
STARLINK, Unknown motor
Mass
260 kg wet, ~248 kg dry
Launch date (UTC)
2021-03-24 (5 years ago)
Launch vehicle
FALCON 9
Launch site
Air Force Eastern Test Range (AFETR)
Object type
Payload
Rocket body
Debris
Shape & HBR
Box + 1 Pan, 10.1 m
Radar Cross Section
13.562 m², Large (>1 m²)

Expand to show TLE details & history
Last TLE update: 11 hours ago

TLE from 11 hours ago
0 STARLINK-1647
1 47978U 21024B   26130.04563377  .00001150  00000-0  48807-4 0  9999
2 47978  53.1601  47.0841 0001185  88.4094 271.7043 15.31701255284025
Epoch: 2026-05-10T01:05Z
TLE epoch observation values (Epoch: 2026-05-10T01:05:42.757Z)
Latitude
-0.00005°
Longitude
162.80156°
Altitude
471.613 km
Speed
7.631 km/s
True Right ascension
03h 08m 20s
True Declination
0° 00' 00"
Sunlit
Object was in daylight at epoch
Visualization orbit readout
Latitude
Unknown
Longitude
Unknown
Altitude
Unknown
Speed
Unknown
Apparent Right ascension
Unknown
Apparent Declination
Unknown
Sunlit
N/A
Visualization observer readout
Local Sidereal Time
19:53:06
Azimuth
Unknown
Elevation
Unknown
Doppler factor
Unknown
Orbital elements
Apogee altitude
471.804 km
Perigee altitude
470.181 km
Semi-major axis
6,849.13 km
Eccentricity
0.00012
Inclination
53.1601°
RAAN
47.0841°
Arg. of periapsis
88.4094°
True anomaly
271.69073°
Mean anomaly
271.7043°
Eccentric anomaly
271.69751°
Mean motion
3.82904 °/min
Orbital period
94.02 mins
BSTAR
0.000048807
Loading maneuver chart data...
Computing Atmospheric mass density...

Documentation

Showing up to 5 results
|